{"data":{"norad_id":51778,"intl_designator":"2022-017L","name":"STARLINK-3615","alt_names":[],"object_type":"PAYLOAD","status":"ACTIVE","operator":null,"country":"US","launch_date":"2022-02-25","launch_site_code":"AFWTR","launch_vehicle":null,"mission":null,"orbit_class":"UNKNOWN","rcs_meters":null,"size_class":null,"mass_kg":null,"dimensions":null,"purposes":["comms"],"wikipedia_slug":null,"has_3d_model":false,"image_url":null,"decayed_at":null,"tle_current":{"epoch":"2026-09-20T00:44:27.487680Z","epoch_age_seconds":92412,"freshness":"FRESH","line1":"1 51778U 22017L   26263.03087370  .00000152  00000+0  15633-4 0  9996","line2":"2 51778  53.1603 165.5648 0001330 109.3406 250.7741 15.34390058252040","mean_motion":15.34390058,"eccentricity":0.000133,"inclination_deg":53.1603,"raan_deg":165.5648,"arg_perigee_deg":109.3406,"mean_anomaly_deg":250.7741,"bstar":1.5633e-5,"rev_number":25204,"period_min":93.848366162967,"perigee_km":461.82295440376,"apogee_km":463.64262576792,"semimajor_km":6840.8697900858,"source":"CELESTRAK","updated_at":"2026-09-20T09:00:39.937951Z"}}}